Tracking 30995 objects as of 5-Jul-2025
HD Live streaming from Space Station
objects crossing your sky now

STARLINK-31461

Track STARLINK-31461 now!
10-day predictions
STARLINK-31461 is classified as:


NORAD ID: 59370
Int'l Code: 2024-060Y
Perigee: 489.4 km
Apogee: 491.1 km
Inclination: 43.0 °
Period: 94.3 minutes
Semi major axis: 6861 km
RCS: Unknown
Launch date: March 31, 2024
Source: United States (US)
Launch site: AIR FORCE EASTERN TEST RANGE (AFETR)
Your satellite tracking list
Your tracking list is empty




NASA's NSSDC Master Catalog

Two Line Element Set (TLE):
1 59370U 24060Y   25186.10759268 -.00001700  00000-0 -52291-4 0  9999
2 59370  43.0006 207.2316 0001266 272.7249  87.3458 15.27559605 72265
Source of the keplerian elements: AFSPC